contact:dominique.lefevre@mio.osupytheas.fr, maurice.libes@osupytheas.fr, didier.mallarino@osupytheas.fr
Project:EMSO http://www.emso-fr.org/EMSO-France
Depth: 2436.0 m
Title:EMSO Ligure Ouest : Data MII capteur AQUADOPP
Date,Latitude,Longitude,X_East,Y_North,Z_Up,Amplitude_X,Amplitude_Y,Amplitude_Z,Batterie,SoundSpeed,Heading,Pitch,Roll,Pressure,TIS,Speed,Direction
, degrees North, degrees East, m.s-1, m.s-1,m.s-1, 1, 1, 1, Volt, m.s-1, degree, degree, degree, dbar, degree_C, m.s-1, degree
2019-10-16T00:04:04,42.805,6.029,0.026,0.031,0.006,99.0,108.0,98.0,13.3,1505.1,324.3,-0.8,1.8,2470.475,13.27,0.04,40.0
2019-10-16T00:07:05,42.805,6.029,0.018,0.025,0.006,99.0,108.0,98.0,13.4,1505.2,326.3,-0.7,1.9,2470.32,13.29,0.03,35.8
2019-10-16T00:10:06,42.805,6.029,-0.026,-0.007,-0.068,99.0,111.0,97.0,13.3,1505.2,325.3,-0.7,1.8,2470.185,13.3,0.026,254.9
2019-10-16T00:13:07,42.805,6.029,0.004,0.007,-0.063,101.0,106.0,97.0,13.4,1505.3,325.1,-0.7,1.9,2470.064,13.31,0.008,29.7
2019-10-16T00:16:08,42.805,6.029,0.006,0.012,-0.076,100.0,107.0,97.0,13.4,1505.3,327.1,-0.7,1.8,2469.969,13.31,0.013,26.6
2019-10-16T00:19:09,42.805,6.029,0.026,0.024,-0.019,99.0,108.0,97.0,13.4,1505.3,323.7,-0.8,1.8,2469.915,13.32,0.035,47.3
2019-10-16T00:22:10,42.805,6.029,0.013,0.007,-0.057,101.0,107.0,97.0,13.4,1505.3,325.9,-0.7,1.9,2469.86,13.32,0.014,61.7
2019-10-16T00:25:11,42.805,6.029,0.032,0.002,-0.021,98.0,108.0,98.0,13.4,1505.3,324.7,-0.7,1.8,2469.881,13.32,0.032,86.4
2019-10-16T00:28:12,42.805,6.029,-0.007,0.028,-0.043,100.0,108.0,98.0,13.4,1505.3,327.0,-0.7,1.8,2469.849,13.32,0.028,346.0
2019-10-16T00:31:13,42.805,6.029,0.014,0.014,-0.036,99.0,107.0,98.0,13.4,1505.3,326.7,-0.7,1.8,2469.814,13.32,0.019,45.0
2019-10-16T00:34:14,42.805,6.029,0.04,0.02,0.018,100.0,106.0,98.0,13.4,1505.3,325.5,-0.8,1.8,2469.817,13.33,0.044,63.4
2019-10-16T00:37:15,42.805,6.029,0.011,0.018,-0.037,100.0,107.0,98.0,13.4,1505.3,325.9,-0.7,1.8,2469.773,13.33,0.021,31.4
2019-10-16T00:40:16,42.805,6.029,0.038,0.001,-0.028,99.0,107.0,98.0,13.4,1505.3,324.9,-0.7,1.8,2469.828,13.33,0.038,88.5
2019-10-16T00:43:17,42.805,6.029,-0.01,0.02,-0.035,99.0,108.0,98.0,13.3,1505.3,326.9,-0.7,1.8,2469.832,13.33,0.022,333.4
2019-10-16T00:46:18,42.805,6.029,-0.026,0.015,-0.073,99.0,108.0,98.0,13.3,1505.3,323.5,-0.7,1.8,2469.858,13.33,0.03,300.0
2019-10-16T00:49:19,42.805,6.029,0.007,0.007,-0.021,99.0,108.0,98.0,13.4,1505.3,327.4,-0.7,1.8,2469.809,13.33,0.009,45.0
2019-10-16T00:52:20,42.805,6.029,0.008,0.002,-0.048,98.0,107.0,98.0,13.4,1505.3,326.3,-0.7,1.8,2469.833,13.33,0.008,76.0
2019-10-16T00:55:21,42.805,6.029,0.029,0.013,-0.009,100.0,107.0,98.0,13.4,1505.3,325.7,-0.7,1.9,2469.826,13.33,0.031,65.9
2019-10-16T00:58:22,42.805,6.029,0.025,0.027,-0.036,99.0,109.0,98.0,13.4,1505.3,324.1,-0.7,1.8,2469.824,13.33,0.036,42.8
2019-10-16T01:01:23,42.805,6.029,0.023,0.019,-0.027,99.0,108.0,98.0,13.4,1505.3,324.7,-0.7,1.8,2469.867,13.33,0.029,50.4
2019-10-16T01:04:24,42.805,6.029,0.001,0.002,-0.036,99.0,108.0,98.0,13.3,1505.3,324.5,-0.7,1.9,2469.844,13.33,0.002,26.6
2019-10-16T01:07:25,42.805,6.029,-0.02,0.031,-0.032,99.0,106.0,98.0,13.4,1505.3,325.7,-0.7,1.8,2469.843,13.33,0.036,327.2
2019-10-16T01:10:26,42.805,6.029,0.015,0.012,-0.053,100.0,107.0,99.0,13.4,1505.3,326.8,-0.7,1.8,2469.848,13.33,0.019,51.3
2019-10-16T01:13:27,42.805,6.029,0.023,0.019,-0.017,100.0,106.0,98.0,13.4,1505.3,326.8,-0.7,1.8,2469.815,13.33,0.029,50.4
2019-10-16T01:16:28,42.805,6.029,0.03,0.009,-0.028,100.0,107.0,98.0,13.4,1505.3,328.0,-0.7,1.8,2469.845,13.33,0.031,73.3
2019-10-16T01:19:29,42.805,6.029,0.018,0.003,-0.069,101.0,108.0,97.0,13.4,1505.3,325.9,-0.7,1.8,2469.815,13.33,0.018,80.5
2019-10-16T01:22:30,42.805,6.029,-0.016,0.018,-0.049,98.0,107.0,98.0,13.4,1505.3,324.3,-0.7,1.8,2469.826,13.33,0.024,318.4
2019-10-16T01:25:31,42.805,6.029,0.029,0.027,-0.027,99.0,107.0,97.0,13.4,1505.3,324.4,-0.7,1.8,2469.857,13.33,0.039,47.0
2019-10-16T01:28:32,42.805,6.029,-0.011,0.026,-0.049,99.0,107.0,98.0,13.4,1505.3,326.7,-0.7,1.8,2469.868,13.33,0.028,337.1
2019-10-16T01:31:33,42.805,6.029,0.003,0.018,-0.032,99.0,107.0,98.0,13.3,1505.3,328.6,-0.7,1.8,2469.907,13.33,0.018,9.5
2019-10-16T01:34:34,42.805,6.029,-0.004,0.01,-0.055,99.0,106.0,98.0,13.3,1505.3,326.9,-0.7,1.8,2469.837,13.33,0.01,338.2
2019-10-16T01:37:35,42.805,6.029,0.023,0.023,-0.04,98.0,107.0,98.0,13.4,1505.3,323.8,-0.7,1.8,2469.859,13.33,0.032,45.0
2019-10-16T01:40:36,42.805,6.029,-0.009,0.019,-0.061,99.0,108.0,98.0,13.4,1505.3,323.4,-0.7,1.8,2469.82,13.33,0.021,334.7
2019-10-16T01:43:37,42.805,6.029,-0.009,0.023,-0.057,98.0,108.0,98.0,13.4,1505.3,326.4,-0.7,1.8,2469.894,13.33,0.024,338.6
2019-10-16T01:46:38,42.805,6.029,0.013,0.021,-0.057,100.0,107.0,98.0,13.4,1505.3,327.6,-0.7,1.8,2469.839,13.33,0.024,31.8
2019-10-16T01:49:39,42.805,6.029,-0.02,0.011,-0.056,100.0,107.0,98.0,13.4,1505.3,326.8,-0.7,1.8,2469.878,13.33,0.022,298.8
2019-10-16T01:52:40,42.805,6.029,0.013,0.004,-0.029,99.0,106.0,97.0,13.4,1505.3,322.8,-0.7,1.8,2469.854,13.33,0.013,72.9
2019-10-16T01:55:41,42.805,6.029,0.011,0.015,0.007,99.0,106.0,98.0,13.4,1505.3,326.7,-0.7,1.9,2469.868,13.33,0.018,36.3
2019-10-16T01:58:42,42.805,6.029,0.0,0.02,-0.052,98.0,107.0,98.0,13.4,1505.3,324.9,-0.7,1.8,2469.889,13.33,0.02,0.0
2019-10-16T02:01:43,42.805,6.029,-0.017,0.024,-0.066,100.0,108.0,97.0,13.4,1505.3,327.1,-0.7,1.8,2469.842,13.33,0.029,324.7
2019-10-16T02:04:44,42.805,6.029,0.002,0.003,-0.074,100.0,107.0,98.0,13.4,1505.3,323.6,-0.7,1.8,2469.895,13.33,0.003,33.7
2019-10-16T02:07:45,42.805,6.029,0.004,0.002,-0.047,100.0,107.0,98.0,13.4,1505.3,327.2,-0.7,1.8,2469.869,13.33,0.004,63.4
2019-10-16T02:10:46,42.805,6.029,-0.021,0.028,-0.044,100.0,106.0,98.0,13.4,1505.3,324.7,-0.7,1.8,2469.843,13.33,0.035,323.1
2019-10-16T02:13:47,42.805,6.029,0.006,0.012,-0.056,100.0,107.0,97.0,13.4,1505.3,327.0,-0.8,1.8,2469.873,13.33,0.013,26.6
2019-10-16T02:16:48,42.805,6.029,0.009,0.026,-0.013,100.0,106.0,98.0,13.4,1505.3,327.4,-0.7,1.8,2469.867,13.33,0.027,19.1
2019-10-16T02:19:49,42.805,6.029,0.027,0.004,-0.029,100.0,107.0,98.0,13.4,1505.3,325.8,-0.7,1.9,2469.849,13.33,0.027,81.6
2019-10-16T02:22:50,42.805,6.029,0.009,0.017,-0.029,101.0,104.0,97.0,13.4,1505.3,324.9,-0.7,1.8,2469.844,13.33,0.019,27.9
2019-10-16T02:25:51,42.805,6.029,0.03,0.017,-0.004,100.0,107.0,98.0,13.4,1505.3,327.9,-0.7,1.8,2469.914,13.33,0.034,60.5
2019-10-16T02:28:52,42.805,6.029,0.035,-0.001,-0.002,99.0,107.0,98.0,13.4,1505.3,326.6,-0.7,1.8,2469.844,13.33,0.035,91.6
2019-10-16T02:31:53,42.805,6.029,0.057,0.009,-0.003,99.0,106.0,98.0,13.4,1505.3,327.4,-0.7,1.8,2469.851,13.33,0.057,81.0
2019-10-16T02:34:54,42.805,6.029,0.038,0.019,0.009,99.0,105.0,97.0,13.4,1505.3,325.5,-0.7,1.8,2469.872,13.33,0.042,63.4
2019-10-16T02:37:55,42.805,6.029,0.024,-0.006,-0.016,99.0,105.0,98.0,13.4,1505.3,327.9,-0.7,1.8,2469.866,13.33,0.024,104.0
2019-10-16T02:40:56,42.805,6.029,0.007,0.012,-0.042,101.0,103.0,97.0,13.3,1505.3,327.0,-0.7,1.8,2469.838,13.33,0.013,30.3
2019-10-16T02:43:57,42.805,6.029,-0.009,0.023,-0.069,98.0,105.0,99.0,13.4,1505.3,326.5,-0.7,1.8,2469.836,13.33,0.024,338.6
2019-10-16T02:46:58,42.805,6.029,0.009,0.012,-0.019,100.0,104.0,98.0,13.4,1505.3,328.1,-0.7,1.8,2469.864,13.33,0.015,36.9
2019-10-16T02:49:59,42.805,6.029,0.02,0.019,-0.046,100.0,105.0,96.0,13.4,1505.3,326.3,-0.7,1.8,2469.898,13.33,0.027,46.5
2019-10-16T02:53:00,42.805,6.029,0.005,0.003,-0.019,99.0,104.0,98.0,13.4,1505.3,323.7,-0.7,1.9,2469.92,13.33,0.005,59.0
2019-10-16T02:56:01,42.805,6.029,0.032,0.008,-0.035,99.0,104.0,97.0,13.4,1505.3,325.9,-0.7,1.8,2469.873,13.33,0.032,76.0
2019-10-16T02:59:02,42.805,6.029,0.003,0.012,-0.035,99.0,105.0,98.0,13.4,1505.3,327.9,-0.7,1.8,2469.872,13.33,0.012,14.0
2019-10-16T03:02:03,42.805,6.029,0.034,-0.004,-0.011,99.0,105.0,98.0,13.3,1505.3,324.8,-0.7,1.8,2469.869,13.33,0.034,96.7
2019-10-16T03:05:04,42.805,6.029,0.016,0.008,-0.065,100.0,106.0,98.0,13.4,1505.3,324.9,-0.7,1.8,2469.877,13.33,0.017,63.4
2019-10-16T03:08:05,42.805,6.029,-0.019,-0.006,-0.103,99.0,107.0,97.0,13.4,1505.3,327.3,-0.8,1.8,2469.888,13.33,0.019,252.5
2019-10-16T03:11:06,42.805,6.029,0.022,0.009,-0.039,99.0,105.0,98.0,13.4,1505.3,323.5,-0.7,1.9,2469.861,13.33,0.023,67.8
2019-10-16T03:14:07,42.805,6.029,-0.036,0.006,-0.093,100.0,105.0,99.0,13.4,1505.3,324.7,-0.7,1.9,2469.902,13.33,0.036,279.5
2019-10-16T03:17:08,42.805,6.029,0.013,-0.001,-0.034,100.0,105.0,98.0,13.3,1505.3,327.9,-0.7,1.8,2469.878,13.33,0.013,94.4
2019-10-16T03:20:09,42.805,6.029,0.002,0.01,-0.054,99.0,105.0,98.0,13.4,1505.3,326.9,-0.7,1.8,2469.928,13.33,0.01,11.3
2019-10-16T03:23:10,42.805,6.029,-0.012,0.003,-0.094,99.0,105.0,98.0,13.4,1505.3,327.4,-0.7,1.8,2469.878,13.33,0.012,284.0
2019-10-16T03:26:11,42.805,6.029,-0.011,0.005,-0.086,99.0,105.0,98.0,13.4,1505.3,326.8,-0.7,1.8,2469.87,13.33,0.012,294.4
2019-10-16T03:29:12,42.805,6.029,0.046,-0.001,-0.028,99.0,105.0,98.0,13.4,1505.3,325.0,-0.6,1.8,2469.881,13.33,0.046,91.2
2019-10-16T03:32:13,42.805,6.029,-0.059,0.006,-0.132,99.0,104.0,98.0,13.3,1505.3,327.7,-0.7,1.8,2469.889,13.33,0.059,275.8
2019-10-16T03:35:14,42.805,6.029,0.035,0.019,0.002,99.0,104.0,98.0,13.4,1505.3,324.3,-0.8,1.8,2469.93,13.33,0.039,61.5
2019-10-16T03:38:15,42.805,6.029,0.003,-0.004,-0.075,100.0,104.0,98.0,13.4,1505.3,324.5,-0.7,1.8,2469.921,13.33,0.005,143.1
2019-10-16T03:41:16,42.805,6.029,-0.06,0.01,-0.107,100.0,103.0,100.0,13.4,1505.3,323.1,-0.7,1.8,2469.906,13.33,0.06,279.5
2019-10-16T03:44:17,42.805,6.029,0.0,0.0,-0.053,102.0,105.0,98.0,13.4,1505.3,329.1,-0.7,1.9,2469.915,13.33,0.0,0.0
2019-10-16T03:47:18,42.805,6.029,0.006,0.024,-0.049,97.0,106.0,98.0,13.3,1505.3,325.2,-0.7,1.8,2469.919,13.33,0.024,14.0
2019-10-16T03:50:19,42.805,6.029,0.053,-0.001,-0.039,99.0,104.0,98.0,13.4,1505.3,325.4,-0.7,1.8,2469.888,13.33,0.053,91.1
2019-10-16T03:53:20,42.805,6.029,0.015,0.014,-0.023,99.0,105.0,98.0,13.4,1505.3,325.7,-0.7,1.8,2469.915,13.33,0.02,47.0
2019-10-16T03:56:21,42.805,6.029,0.042,0.012,-0.014,98.0,106.0,97.0,13.4,1505.3,326.3,-0.7,1.8,2469.904,13.33,0.043,74.1
2019-10-16T03:59:22,42.805,6.029,-0.019,-0.007,-0.028,99.0,105.0,98.0,13.4,1505.3,322.9,-0.7,1.8,2469.918,13.33,0.02,249.8
2019-10-16T04:02:23,42.805,6.029,0.041,0.02,-0.021,98.0,104.0,98.0,13.4,1505.3,325.9,-0.7,1.8,2469.905,13.33,0.045,64.0
2019-10-16T04:05:24,42.805,6.029,0.004,0.0,-0.032,100.0,109.0,98.0,13.4,1505.3,327.7,-0.7,1.8,2469.91,13.33,0.004,90.0
2019-10-16T04:08:25,42.805,6.029,-0.004,0.013,-0.067,100.0,105.0,97.0,13.3,1505.3,328.5,-0.7,1.8,2469.875,13.33,0.013,342.9
2019-10-16T04:11:26,42.805,6.029,0.006,-0.003,-0.055,99.0,105.0,98.0,13.4,1505.3,326.4,-0.7,1.8,2469.931,13.33,0.006,116.6
2019-10-16T04:14:27,42.805,6.029,-0.012,0.004,-0.101,99.0,108.0,98.0,13.3,1505.3,323.0,-0.8,1.8,2469.919,13.33,0.012,288.4
2019-10-16T04:17:28,42.805,6.029,-0.061,0.0,-0.097,98.0,107.0,98.0,13.3,1505.3,323.6,-0.7,1.9,2469.882,13.33,0.06,270.0
2019-10-16T04:20:29,42.805,6.029,0.014,-0.013,-0.069,99.0,106.0,99.0,13.3,1505.3,328.5,-0.7,1.8,2469.905,13.33,0.019,132.9
2019-10-16T04:23:30,42.805,6.029,-0.007,-0.015,-0.088,100.0,105.0,98.0,13.3,1505.3,325.8,-0.7,1.8,2469.922,13.33,0.016,205.0
2019-10-16T04:26:31,42.805,6.029,-0.013,0.014,-0.041,98.0,106.0,97.0,13.3,1505.3,326.5,-0.7,1.9,2469.885,13.33,0.019,317.1
2019-10-16T04:29:32,42.805,6.029,0.022,-0.01,-0.028,100.0,106.0,99.0,13.4,1505.3,324.6,-0.7,1.8,2469.951,13.33,0.024,114.4
2019-10-16T04:32:33,42.805,6.029,0.013,0.005,-0.025,99.0,105.0,98.0,13.4,1505.3,328.2,-0.7,1.8,2469.94,13.33,0.013,69.0
2019-10-16T04:35:34,42.805,6.029,0.0,-0.017,-0.084,99.0,105.0,98.0,13.3,1505.3,325.1,-0.7,1.8,2469.921,13.33,0.017,180.0
2019-10-16T04:38:35,42.805,6.029,0.003,0.022,-0.027,100.0,105.0,98.0,13.4,1505.3,326.8,-0.7,1.9,2469.939,13.33,0.022,7.8
2019-10-16T04:41:36,42.805,6.029,0.019,0.012,-0.015,101.0,106.0,98.0,13.3,1505.3,325.6,-0.7,1.8,2469.891,13.33,0.022,57.7
2019-10-16T04:44:37,42.805,6.029,-0.003,0.004,-0.081,99.0,106.0,98.0,13.4,1505.3,327.5,-0.7,1.8,2469.948,13.33,0.005,323.1
2019-10-16T04:47:38,42.805,6.029,0.043,0.009,-0.027,99.0,107.0,98.0,13.4,1505.3,327.4,-0.7,1.8,2469.938,13.33,0.043,78.2
2019-10-16T04:50:39,42.805,6.029,0.033,0.014,-0.029,100.0,106.0,98.0,13.3,1505.3,325.1,-0.7,1.8,2469.938,13.33,0.035,67.0
2019-10-16T04:53:40,42.805,6.029,-0.028,-0.01,-0.104,99.0,106.0,98.0,13.3,1505.3,327.0,-0.7,1.8,2469.945,13.33,0.029,250.4
2019-10-16T04:56:41,42.805,6.029,0.015,-0.012,-0.093,99.0,106.0,98.0,13.4,1505.3,323.7,-0.7,1.8,2469.938,13.33,0.019,128.7
2019-10-16T04:59:42,42.805,6.029,0.012,0.01,-0.022,98.0,106.0,98.0,13.3,1505.3,324.7,-0.7,1.9,2469.925,13.33,0.015,50.2
2019-10-16T05:02:43,42.805,6.029,0.027,0.012,-0.038,99.0,106.0,97.0,13.4,1505.3,327.9,-0.7,1.8,2469.937,13.33,0.029,66.0
2019-10-16T05:05:44,42.805,6.029,0.0,0.002,-0.062,99.0,106.0,97.0,13.4,1505.3,324.4,-0.7,1.8,2469.941,13.33,0.002,0.0
2019-10-16T05:08:45,42.805,6.029,0.0,0.001,-0.039,99.0,106.0,98.0,13.4,1505.3,327.5,-0.7,1.8,2469.95,13.33,0.001,0.0
2019-10-16T05:11:46,42.805,6.029,0.038,0.016,-0.008,99.0,108.0,98.0,13.4,1505.3,327.1,-0.7,1.8,2469.977,13.33,0.041,67.2
2019-10-16T05:14:47,42.805,6.029,0.009,0.007,-0.063,99.0,105.0,98.0,13.4,1505.3,324.3,-0.7,1.8,2469.978,13.33,0.011,52.1
2019-10-16T05:17:48,42.805,6.029,0.015,0.007,-0.012,98.0,106.0,98.0,13.3,1505.3,327.2,-0.7,1.8,2469.972,13.33,0.016,65.0
2019-10-16T05:20:49,42.805,6.029,-0.007,0.003,-0.054,98.0,105.0,98.0,13.4,1505.3,327.6,-0.7,1.8,2469.977,13.33,0.007,293.2
2019-10-16T05:23:50,42.805,6.029,0.017,0.002,-0.069,99.0,105.0,98.0,13.4,1505.3,324.4,-0.7,1.8,2469.97,13.33,0.017,83.3
2019-10-16T05:26:51,42.805,6.029,0.01,0.013,-0.038,99.0,105.0,97.0,13.3,1505.3,324.8,-0.7,1.8,2469.959,13.33,0.016,37.6
2019-10-16T05:29:52,42.805,6.029,0.01,0.019,-0.005,100.0,106.0,97.0,13.4,1505.3,326.8,-0.7,1.8,2469.982,13.33,0.021,27.8
2019-10-16T05:32:53,42.805,6.029,0.012,0.009,-0.033,98.0,106.0,98.0,13.4,1505.3,325.1,-0.7,1.8,2469.997,13.33,0.015,53.1
2019-10-16T05:35:54,42.805,6.029,-0.029,0.0,-0.078,99.0,106.0,97.0,13.4,1505.3,327.9,-0.7,1.8,2469.988,13.33,0.028,270.0
2019-10-16T05:38:55,42.805,6.029,-0.028,-0.01,-0.087,98.0,106.0,99.0,13.3,1505.3,324.3,-0.7,1.9,2470.03,13.33,0.029,250.4
2019-10-16T05:41:56,42.805,6.029,-0.046,0.005,-0.103,98.0,106.0,97.0,13.4,1505.3,323.0,-0.7,1.9,2469.994,13.33,0.046,276.2
2019-10-16T05:44:57,42.805,6.029,-0.043,0.005,-0.094,101.0,106.0,98.0,13.3,1505.3,328.4,-0.7,1.8,2469.992,13.33,0.043,276.6
2019-10-16T05:47:58,42.805,6.029,0.004,0.006,-0.047,99.0,105.0,98.0,13.4,1505.3,325.1,-0.7,1.9,2469.999,13.33,0.007,33.7
2019-10-16T05:50:59,42.805,6.029,-0.021,-0.005,-0.089,98.0,106.0,97.0,13.3,1505.3,326.7,-0.7,1.8,2470.022,13.33,0.021,256.6
2019-10-16T05:54:00,42.805,6.029,-0.051,-0.012,-0.108,98.0,106.0,98.0,13.3,1505.3,323.3,-0.7,1.9,2469.995,13.33,0.052,256.8
2019-10-16T05:57:01,42.805,6.029,0.012,-0.004,-0.013,99.0,104.0,97.0,13.4,1505.3,328.4,-0.7,1.8,2470.029,13.33,0.012,108.4
2019-10-16T06:00:02,42.805,6.029,0.036,0.004,0.005,100.0,105.0,98.0,13.4,1505.3,327.4,-0.7,1.8,2470.029,13.33,0.036,83.7
2019-10-16T06:03:03,42.805,6.029,0.004,-0.005,-0.043,98.0,105.0,98.0,13.3,1505.3,325.5,-0.7,1.8,2469.986,13.33,0.006,141.3
2019-10-16T06:06:04,42.805,6.029,0.006,-0.007,-0.053,105.0,104.0,98.0,13.3,1505.3,325.0,-0.7,1.8,2470.036,13.33,0.009,139.4
2019-10-16T06:09:05,42.805,6.029,-0.005,0.0,-0.065,99.0,104.0,98.0,13.4,1505.3,323.9,-0.7,1.8,2470.004,13.33,0.005,270.0
2019-10-16T06:12:06,42.805,6.029,-0.021,0.003,-0.061,98.0,106.0,98.0,13.3,1505.3,326.5,-0.7,1.9,2470.035,13.33,0.021,278.1
2019-10-16T06:15:07,42.805,6.029,0.012,0.013,-0.035,102.0,104.0,97.0,13.4,1505.3,327.6,-0.7,1.8,2469.996,13.33,0.017,42.7
2019-10-16T06:18:08,42.805,6.029,0.032,0.033,0.0,99.0,105.0,97.0,13.4,1505.3,326.7,-0.7,1.8,2470.017,13.33,0.045,44.1
2019-10-16T06:21:09,42.805,6.029,0.025,0.0,-0.029,99.0,104.0,97.0,13.3,1505.3,326.0,-0.7,1.8,2470.006,13.33,0.025,90.0
2019-10-16T06:24:10,42.805,6.029,0.029,0.011,-0.043,100.0,104.0,97.0,13.3,1505.3,323.7,-0.7,1.8,2470.04,13.33,0.031,69.2
2019-10-16T06:27:11,42.805,6.029,0.029,0.026,-0.006,99.0,105.0,97.0,13.3,1505.3,327.0,-0.7,1.9,2470.032,13.33,0.038,48.1
2019-10-16T06:30:12,42.805,6.029,-0.03,0.018,-0.057,97.0,105.0,98.0,13.4,1505.3,326.7,-0.7,1.8,2470.041,13.33,0.034,301.0
2019-10-16T06:33:13,42.805,6.029,-0.037,-0.013,-0.061,99.0,104.0,99.0,13.3,1505.3,327.9,-0.7,1.8,2470.026,13.33,0.039,250.6
2019-10-16T06:36:14,42.805,6.029,-0.059,-0.01,-0.15,99.0,104.0,96.0,13.4,1505.3,324.2,-0.7,1.8,2470.064,13.33,0.059,260.4
2019-10-16T06:39:15,42.805,6.029,-0.094,0.009,-0.146,99.0,107.0,99.0,13.4,1505.4,324.7,-0.7,1.8,2470.036,13.34,0.094,275.5
2019-10-16T06:42:16,42.805,6.029,-0.033,-0.009,-0.105,99.0,105.0,98.0,13.4,1505.4,323.5,-0.7,1.9,2470.03,13.34,0.034,254.7
2019-10-16T06:45:17,42.805,6.029,0.036,0.005,-0.004,99.0,104.0,98.0,13.4,1505.4,326.3,-0.7,1.8,2470.081,13.34,0.036,82.1
2019-10-16T06:48:18,42.805,6.029,-0.017,-0.004,-0.044,98.0,104.0,99.0,13.4,1505.4,325.9,-0.7,1.8,2470.044,13.34,0.017,256.8
2019-10-16T06:51:19,42.805,6.029,0.009,0.022,-0.025,100.0,103.0,97.0,13.4,1505.4,323.4,-0.7,1.8,2470.052,13.34,0.023,22.2
2019-10-16T06:54:20,42.805,6.029,0.052,-0.017,0.006,100.0,105.0,96.0,13.4,1505.4,327.7,-0.7,1.8,2470.035,13.34,0.054,108.1
2019-10-16T06:57:21,42.805,6.029,0.064,0.022,-0.006,98.0,103.0,98.0,13.3,1505.4,326.9,-0.7,1.8,2470.057,13.34,0.067,71.0
2019-10-16T07:00:22,42.805,6.029,0.024,-0.005,0.0,99.0,104.0,98.0,13.3,1505.4,326.9,-0.7,1.9,2470.067,13.34,0.024,101.8
2019-10-16T07:03:23,42.805,6.029,0.017,0.014,-0.038,97.0,105.0,98.0,13.3,1505.4,327.0,-0.7,1.8,2470.045,13.34,0.022,50.5
2019-10-16T07:06:24,42.805,6.029,-0.012,0.043,-0.04,100.0,104.0,96.0,13.4,1505.4,324.2,-0.7,1.8,2470.034,13.34,0.044,344.4
2019-10-16T07:09:25,42.805,6.029,-0.021,0.015,-0.067,99.0,104.0,97.0,13.4,1505.4,324.8,-0.7,1.8,2470.095,13.34,0.025,305.5
2019-10-16T07:12:26,42.805,6.029,-0.011,0.007,-0.057,98.0,104.0,98.0,13.4,1505.4,327.6,-0.8,1.8,2470.11,13.34,0.013,302.5
2019-10-16T07:15:27,42.805,6.029,0.011,0.013,-0.056,99.0,104.0,97.0,13.3,1505.4,324.9,-0.7,1.8,2470.095,13.34,0.017,40.2
2019-10-16T07:18:28,42.805,6.029,0.033,0.016,-0.034,99.0,105.0,97.0,13.3,1505.4,324.9,-0.7,1.8,2470.082,13.34,0.036,64.1
2019-10-16T07:21:29,42.805,6.029,0.008,-0.002,-0.05,98.0,106.0,101.0,13.3,1505.4,324.9,-0.7,1.8,2470.109,13.34,0.008,104.0
2019-10-16T07:24:30,42.805,6.029,0.013,0.004,-0.026,97.0,106.0,98.0,13.3,1505.4,327.3,-0.7,1.8,2470.132,13.34,0.013,72.9
2019-10-16T07:27:31,42.805,6.029,0.005,-0.006,-0.011,99.0,105.0,97.0,13.3,1505.4,325.2,-0.6,1.8,2470.057,13.34,0.007,140.2
2019-10-16T07:30:32,42.805,6.029,0.009,0.018,0.02,98.0,104.0,97.0,13.3,1505.4,323.7,-0.8,1.8,2470.111,13.34,0.02,26.6
2019-10-16T07:33:33,42.805,6.029,-0.01,0.003,-0.044,99.0,106.0,97.0,13.4,1505.4,327.0,-0.7,1.8,2470.103,13.34,0.01,286.7
2019-10-16T07:36:34,42.805,6.029,-0.005,0.014,-0.047,98.0,106.0,98.0,13.4,1505.4,325.2,-0.7,1.8,2470.067,13.34,0.014,340.4
2019-10-16T07:39:35,42.805,6.029,0.007,0.0,-0.074,99.0,106.0,96.0,13.4,1505.4,323.7,-0.7,1.9,2470.089,13.34,0.007,90.0
2019-10-16T07:42:36,42.805,6.029,0.017,0.01,0.0,99.0,106.0,98.0,13.4,1505.4,327.8,-0.7,1.8,2470.046,13.34,0.019,59.5
2019-10-16T07:45:37,42.805,6.029,0.01,-0.007,-0.062,98.0,105.0,97.0,13.4,1505.4,325.5,-0.7,1.9,2470.122,13.34,0.012,125.0
2019-10-16T07:48:38,42.805,6.029,0.022,0.012,-0.017,101.0,106.0,98.0,13.4,1505.4,325.7,-0.7,1.8,2470.107,13.34,0.025,61.4
2019-10-16T07:51:39,42.805,6.029,0.033,0.006,-0.001,99.0,108.0,99.0,13.3,1505.4,326.1,-0.7,1.8,2470.098,13.34,0.033,79.7
2019-10-16T07:54:40,42.805,6.029,-0.038,0.011,-0.06,99.0,104.0,97.0,13.4,1505.4,326.8,-0.7,1.8,2470.129,13.34,0.039,286.1
2019-10-16T07:57:41,42.805,6.029,-0.04,-0.001,-0.076,100.0,104.0,98.0,13.3,1505.4,327.2,-0.7,1.8,2470.118,13.34,0.04,268.6
2019-10-16T08:00:42,42.805,6.029,-0.037,0.024,-0.033,99.0,107.0,97.0,13.3,1505.4,327.1,-0.7,1.8,2470.116,13.34,0.044,303.0
2019-10-16T08:03:43,42.805,6.029,-0.075,-0.003,-0.089,100.0,105.0,98.0,13.4,1505.4,324.6,-0.7,1.8,2470.098,13.34,0.075,267.7
2019-10-16T08:06:44,42.805,6.029,-0.025,0.013,-0.061,99.0,104.0,98.0,13.3,1505.4,323.3,-0.7,1.8,2470.12,13.34,0.028,297.5
